RH
5 5 6 6 6 6 6 6 6 5 5 6 6 6 7 7 7 8 7 8 10 10 13 15 14 15 15 12 11 10 10 11 10 10 11 11 12 13 15 17 15 16 20 23 23 25 27 29 31 31 31 30 30 31 31 29 27 25 22 21 20 19 20 21 23 25 27 30 32 34 37 39 41 43 44 46 47 49 50 51 51 51 52 52 50 48
5 5 6 7 7 7 7 6 6 6 6 7 7 8 8 8 8 7 8 10 12 13 14 15 14 14 13 11 10 11 12 13 12 12 12 13 14 15 17 17 17 20 24 26 26 28 32 34 35 36 37 37 36 35 34 34 32 28 23 20 18 17 18 20 22 25 27 30 33 35 39 42 46 48 49 50 51 52 55 57 58 58 58 57 56 54
5 6 6 7 7 7 7 6 6 6 7 8 8 9 9 9 8 8 11 13 15 15 14 15 12 11 10 10 12 14 14 14 14 14 15 15 16 17 19 20 20 24 28 28 29 31 34 36 37 39 41 41 39 38 38 37 36 31 26 21 19 18 20 22 25 28 31 34 38 42 46 50 53 55 55 56 56 56 58 61 63 63 62 60 59 58
6 6 7 8 8 7 7 6 7 7 8 9 9 10 11 12 12 12 14 14 15 15 14 12 9 7 8 9 12 14 15 16 16 17 16 17 18 19 22 23 25 29 31 32 33 35 37 39 39 40 42 42 41 40 39 39 36 30 24 20 19 21 23 26 29 33 37 42 47 52 56 59 61 62 63 62 61 61 60 61 61 60 60 59 57 57
7 8 8 8 8 7 7 7 8 9 9 9 10 12 14 15 15 15 15 14 14 13 12 10 7 5 7 9 11 15 19 19 18 19 19 18 21 25 26 26 30 34 36 37 37 39 41 43 43 43 43 44 43 42 42 42 37 28 22 20 22 25 28 31 35 39 44 50 57 63 66 67 68 68 68 68 67 65 62 58 56 54 53 53 53 52
8 9 8 8 8 7 7 8 9 10 10 11 13 15 15 15 16 15 15 13 12 10 8 8 8 5 7 12 13 16 22 21 21 22 19 21 27 30 28 29 36 42 42 42 42 44 48 50 50 49 47 45 44 45 44 39 31 25 23 24 26 30 33 36 40 45 53 61 68 71 72 71 69 69 69 67 63 60 57 53 51 50 48 48 47 47
8 8 8 7 7 7 8 10 11 12 12 13 15 16 15 15 15 14 13 11 8 7 6 9 12 8 8 17 19 20 21 20 22 24 23 28 32 31 32 36 42 44 43 45 47 51 54 55 56 54 52 51 48 44 38 30 26 25 26 28 31 34 38 42 49 59 69 77 79 77 74 71 68 65 62 59 56 53 50 47 44 41 38 35 33 31
7 8 8 8 8 9 10 12 13 14 14 14 15 15 14 13 12 11 9 8 7 7 7 11 15 12 11 19 22 22 22 21 22 26 30 31 29 32 41 44 42 41 42 45 49 52 54 55 54 52 50 46 39 33 29 27 28 30 32 34 36 39 44 55 67 78 85 86 82 75 70 66 62 59 55 52 48 42 37 32 28 25 23 21 18 15
8 8 8 9 10 11 12 14 14 15 15 14 14 13 12 11 9 9 8 8 8 8 8 11 14 14 15 22 26 24 25 28 31 34 35 33 34 39 42 41 40 42 42 43 44 44 45 47 46 42 37 31 28 27 28 31 32 34 37 39 44 53 64 75 83 86 84 78 71 65 61 57 54 49 43 37 30 24 20 18 16 16 16 15 13 12
8 9 10 11 12 13 14 15 14 14 13 13 12 10 10 9 8 9 8 9 10 9 10 12 14 14 16 25 33 31 31 37 42 42 41 43 45 41 36 37 38 38 37 36 36 35 36 37 34 30 27 26 28 30 33 35 37 40 46 55 66 77 86 88 84 77 71 66 61 57 52 45 39 32 26 22 19 17 16 16 14 14 13 12 12 11
9 10 12 13 14 14 14 14 13 13 11 11 9 8 8 8 9 10 10 11 10 10 11 12 16 18 20 31 39 39 45 52 52 51 52 51 47 40 38 38 34 30 29 29 31 33 33 31 30 29 28 30 33 34 38 42 48 59 71 83 88 88 85 78 71 66 62 57 52 45 38 30 25 22 20 18 18 17 16 16 14 13 12 10 10 9
10 12 13 13 14 13 13 12 11 10 9 9 8 9 9 8 9 9 9 10 10 12 13 17 21 22 29 42 45 46 56 62 58 56 56 52 47 45 42 36 32 30 30 33 37 38 36 34 35 36 35 37 41 46 53 63 74 85 92 93 87 78 71 65 60 56 48 40 33 28 25 23 22 21 20 19 18 17 16 15 13 11 10 9 8 8
11 12 13 13 12 11 10 10 9 9 9 9 9 11 10 9 10 10 10 12 15 19 20 24 29 29 39 51 50 51 58 60 58 57 55 51 46 43 38 35 34 35 38 43 45 41 39 39 40 40 42 49 58 68 78 86 91 91 87 80 73 67 63 58 52 40 29 23 20 21 22 22 23 22 21 20 18 17 14 13 12 10 9 8 7 7
12 12 11 11 10 9 9 9 9 9 8 8 9 11 11 12 13 12 14 17 20 25 26 30 35 37 43 51 52 53 52 48 51 55 53 48 43 39 37 37 37 40 44 45 43 41 41 41 43 48 57 68 79 87 90 90 86 80 74 69 64 61 56 48 39 28 23 23 23 24 23 23 23 22 21 20 17 16 13 11 10 8 7 6 6 5
11 11 10 9 8 8 8 8 9 9 9 9 10 12 13 16 20 20 21 24 25 27 30 36 43 43 42 47 51 49 41 38 44 48 45 40 40 40 40 43 48 53 52 46 42 44 47 51 61 72 82 89 92 92 87 81 75 69 65 61 56 49 42 35 29 26 26 27 27 26 24 22 21 18 18 16 13 12 10 9 8 6 6 5 5 5
9 9 7 7 7 8 9 9 10 11 12 12 13 16 18 22 26 27 28 31 32 31 31 35 42 41 34 35 41 37 32 37 42 41 38 37 38 41 45 52 58 57 51 46 49 57 66 77 88 95 98 97 92 85 78 70 65 62 57 51 43 35 31 29 28 29 30 31 31 30 26 22 17 14 13 11 10 8 6 6 6 5 5 4 4 5
7 7 7 8 9 10 11 12 13 14 15 16 17 20 23 25 29 31 31 33 35 32 27 29 37 40 35 30 30 32 38 44 43 38 37 36 37 42 48 52 54 54 55 62 73 83 91 97 100 100 95 88 80 72 66 61 58 54 47 40 34 30 30 30 32 34 35 35 34 32 28 22 18 15 13 11 9 7 5 5 4 5 5 4 5 4
7 7 8 10 11 13 14 14 15 17 18 20 22 25 30 31 34 38 34 30 31 28 25 29 38 46 49 43 33 35 44 44 36 34 36 37 43 49 52 56 63 71 79 89 96 99 100 101 99 91 79 70 64 61 59 57 53 46 39 35 33 32 33 34 37 38 38 37 34 30 26 22 19 16 13 11 8 6 5 5 5 5 4 4 5 4
9 8 9 11 13 14 14 16 17 19 21 25 26 29 34 36 37 38 34 29 28 27 27 30 36 43 47 45 42 44 48 41 34 39 46 50 58 66 73 81 89 94 98 100 101 100 98 94 82 69 61 58 58 59 58 54 48 42 37 34 34 35 37 39 40 40 39 36 30 26 23 20 17 13 10 8 6 6 5 5 5 5 5 5 4 7
11 10 10 11 13 14 16 19 19 18 19 22 24 26 31 33 33 33 33 34 35 33 31 31 37 44 44 48 59 61 50 39 36 44 56 67 80 90 96 100 100 100 101 100 97 93 84 72 60 55 55 58 60 61 58 52 46 41 37 36 38 40 42 42 42 42 40 35 28 24 20 17 13 10 8 7 6 6 5 5 6 5 6 6 7 15
11 11 11 11 13 14 15 16 16 15 16 19 22 24 26 28 30 31 32 36 37 35 34 32 35 44 48 52 59 54 42 42 50 62 75 88 97 100 100 100 100 100 98 92 83 73 62 54 52 55 59 62 63 61 56 50 45 41 40 41 43 45 45 44 44 43 39 33 27 22 18 14 11 8 7 6 6 6 6 7 7 6 7 8 12 22
12 12 12 13 14 15 17 18 18 19 20 22 24 25 27 29 30 30 30 32 36 36 37 35 29 33 44 49 51 54 61 72 81 88 96 101 101 100 100 101 98 91 82 71 60 53 51 52 57 61 64 66 64 58 53 48 45 45 46 47 49 49 48 46 46 43 37 31 26 21 16 12 10 8 7 6 6 7 8 8 8 7 8 9 17 28
14 15 15 16 18 19 21 22 22 23 25 26 27 28 30 31 32 35 35 33 33 33 33 34 32 38 53 64 72 82 92 97 98 99 101 100 100 101 100 91 79 68 59 52 48 49 55 60 64 67 67 65 60 56 53 51 51 52 53 54 53 52 51 49 46 42 35 30 25 20 15 12 10 8 8 8 8 8 9 9 9 9 10 14 25 38
19 20 20 21 23 24 26 25 25 27 27 28 30 30 31 33 33 34 31 28 28 32 40 51 61 72 84 90 93 99 102 101 101 101 100 101 101 96 85 69 57 50 48 48 52 58 64 68 69 68 66 62 59 58 58 58 60 61 60 60 58 56 54 51 46 40 34 29 24 19 15 12 10 9 9 9 8 8 9 10 12 12 13 24 38 52
24 26 27 27 27 28 28 28 28 28 30 31 32 31 29 27 26 28 33 42 53 63 76 87 91 96 100 101 100 102 102 100 100 101 100 96 87 73 58 48 46 48 51 57 63 68 71 71 70 67 65 64 64 65 66 67 68 68 68 66 63 60 57 52 46 40 33 28 24 19 16 13 12 11 10 9 8 9 10 12 17 16 19 36 56 70
29 30 32 31 31 31 31 31 31 30 30 29 27 25 26 31 41 54 68 80 88 92 99 103 99 96 100 103 102 101 101 101 102 98 87 72 57 49 45 46 52 57 63 69 71 72 72 70 69 69 70 71 72 74 75 76 76 75 74 72 67 61 58 53 47 40 33 28 23 20 17 15 14 13 12 11 9 10 12 16 21 20 23 45 69 82
32 33 33 31 30 29 28 28 27 26 25 27 32 39 49 62 77 88 94 99 99 97 99 102 102 100 100 100 101 102 102 99 89 75 60 49 45 47 51 57 63 69 74 75 75 74 73 74 75 76 78 79 80 81 82 83 82 80 78 76 70 64 59 55 48 41 33 27 23 21 19 18 17 16 14 12 11 13 15 19 25 24 24 45 73 85
29 28 26 25 24 25 27 28 31 35 39 45 54 62 68 77 87 94 98 101 101 100 100 101 101 101 101 101 101 97 88 75 61 51 47 48 52 58 64 71 75 77 76 76 76 78 80 82 82 84 85 85 86 87 88 89 88 85 82 79 72 66 62 56 49 41 34 29 25 23 22 22 21 20 17 14 13 15 17 20 26 26 24 37 66 86
23 24 25 27 31 35 39 41 47 52 55 58 63 70 77 82 89 98 102 103 102 101 100 100 100 103 102 94 83 70 59 51 47 49 54 60 67 72 76 78 77 76 78 81 85 87 88 87 87 88 89 89 91 92 92 92 91 87 83 79 72 66 61 55 48 42 35 30 28 26 26 27 26 24 20 15 14 15 17 22 26 28 25 29 56 84
30 33 36 38 41 48 52 53 57 61 63 67 70 77 87 91 94 100 102 102 101 101 102 103 100 93 80 66 55 49 48 51 56 63 70 74 77 78 78 79 81 85 88 86 82 76 70 68 72 76 79 83 88 90 88 88 88 86 82 78 72 67 62 55 48 43 37 33 32 32 32 32 30 27 22 16 16 16 18 22 25 28 27 24 46 81
37 38 40 38 39 48 54 55 59 62 62 64 68 75 86 91 96 102 103 101 101 99 98 90 77 64 53 48 48 51 57 64 70 76 79 80 81 82 81 79 75 70 62 51 42 34 30 32 38 44 51 62 73 79 82 84 85 85 82 76 72 68 62 56 49 44 40 38 38 38 38 37 34 30 25 20 19 18 19 23 24 26 27 22 40 76
33 34 35 33 32 41 47 46 52 59 58 62 73 82 87 90 96 102 102 98 92 83 73 63 53 50 50 53 57 63 71 77 80 84 86 82 77 70 59 45 34 26 19 14 12 11 11 14 16 20 29 43 58 69 78 83 84 85 81 77 74 69 62 56 50 46 44 43 45 45 44 42 37 32 29 24 22 21 21 24 24 25 28 22 35 72
29 28 30 29 28 35 41 41 48 57 62 70 81 86 86 87 92 94 91 83 71 60 54 51 52 54 58 63 68 72 78 83 85 84 76 59 43 31 21 13 9 8 8 8 9 10 11 12 13 16 25 38 53 67 78 84 85 85 81 77 73 68 62 57 53 51 50 49 52 52 49 46 39 34 30 26 24 23 22 25 23 24 27 22 32 69
26 25 27 28 27 31 36 39 45 52 59 70 80 82 82 83 81 75 68 61 54 52 52 54 58 62 67 73 78 80 80 77 66 52 37 22 13 9 7 6 7 7 7 9 10 12 15 17 18 22 30 43 58 72 83 88 87 85 82 77 73 68 64 61 58 57 56 55 57 57 55 52 44 35 30 24 23 23 22 24 22 21 26 22 31 68
23 23 26 28 27 30 34 36 39 42 47 64 80 81 74 69 64 58 54 53 53 55 57 61 67 72 76 81 85 79 64 45 27 16 10 8 6 6 5 5 5 5 6 8 9 11 17 22 26 30 38 50 64 77 86 88 86 84 81 77 75 72 69 68 66 66 65 63 64 63 61 57 48 38 31 24 22 23 22 24 21 19 24 22 31 67
24 24 26 28 29 31 33 36 40 41 43 56 68 66 60 57 56 54 53 54 57 61 65 69 73 78 81 80 69 49 27 12 7 6 6 5 4 4 5 5 5 5 6 7 7 13 23 31 37 43 48 57 68 78 86 87 85 84 82 81 80 77 76 76 75 74 72 70 69 68 65 60 50 41 34 26 23 23 22 24 20 18 22 21 30 66
26 26 27 30 31 32 34 38 44 48 50 54 57 55 55 56 56 56 57 58 64 70 72 74 78 80 72 54 32 14 5 4 5 4 4 4 4 5 4 4 5 5 6 6 7 16 29 40 49 56 60 64 71 78 83 86 86 87 86 86 86 85 85 85 82 80 78 76 76 74 69 62 51 43 35 27 24 23 22 23 20 17 21 20 30 67
27 28 29 32 34 35 37 39 42 46 50 54 56 56 58 58 58 62 64 65 70 75 77 80 77 62 40 19 7 4 4 4 3 3 4 5 4 5 5 5 6 6 6 6 6 12 24 42 61 72 74 75 79 84 88 90 92 92 91 91 91 91 91 89 86 85 83 82 81 75 68 61 51 42 35 28 26 25 23 24 19 16 20 20 31 69
28 30 31 34 36 37 39 43 46 47 51 56 58 59 60 60 62 67 69 70 77 85 85 73 52 28 11 4 4 4 3 3 4 5 5 5 5 6 6 6 6 6 7 7 7 10 20 44 73 89 91 91 92 94 96 96 96 95 95 95 94 94 93 91 89 88 85 82 80 73 66 58 49 42 35 30 30 28 25 23 17 15 20 19 34 74
29 30 32 36 39 41 44 50 53 54 56 60 61 61 63 67 70 73 73 73 78 81 69 42 18 6 4 4 4 3 4 5 5 5 6 6 7 7 7 7 8 8 8 7 9 14 24 47 77 96 101 100 99 99 99 98 98 97 96 97 96 95 95 93 91 89 85 82 77 70 63 55 47 42 38 34 33 28 24 21 16 15 19 19 38 79
29 31 33 37 44 49 51 54 57 60 61 62 63 64 69 73 73 74 78 78 68 52 31 12 4 5 4 3 3 4 5 6 6 7 8 7 8 8 9 9 9 9 9 9 10 14 24 44 71 92 102 102 101 101 101 100 99 98 98 98 98 97 96 93 90 88 84 79 73 66 59 52 47 44 39 35 31 25 21 19 15 16 20 20 43 84
31 34 36 39 47 54 57 58 61 64 63 63 68 73 75 73 69 70 75 69 47 22 8 5 5 4 3 4 5 5 6 7 8 8 9 9 10 10 10 10 10 10 10 10 11 14 20 36 60 83 98 102 100 100 100 100 100 100 99 99 98 96 93 90 87 83 78 73 67 61 56 51 47 43 37 31 26 21 20 18 14 17 20 20 47 88
34 38 41 45 49 56 60 63 66 67 67 70 75 76 73 71 73 72 61 41 20 8 5 5 4 4 4 5 5 6 8 9 9 10 11 11 11 11 12 12 12 11 11 11 12 14 18 32 54 79 98 103 101 100 100 100 100 100 100 99 97 93 90 85 82 76 70 65 60 56 53 49 45 39 32 27 24 20 19 18 15 19 20 21 49 90
38 41 47 54 58 61 64 69 71 72 75 80 81 77 75 79 78 62 36 16 7 6 5 4 4 5 6 6 6 8 9 10 11 13 13 13 13 13 14 13 12 12 13 12 12 14 19 32 52 76 96 103 102 101 101 101 101 100 99 97 92 88 83 78 73 68 62 59 56 53 50 45 39 34 29 26 23 20 19 18 15 19 21 21 47 89
43 47 54 62 67 69 72 74 75 78 82 86 85 83 83 77 59 33 14 8 7 5 4 5 6 6 7 7 8 9 10 12 14 14 15 16 16 15 15 15 14 14 13 13 14 16 22 33 49 71 91 101 104 103 102 102 100 96 93 89 85 80 75 70 66 62 58 56 53 49 45 39 35 32 28 25 23 19 19 19 16 19 21 21 44 85
50 56 62 68 72 75 77 78 80 85 88 88 86 82 72 53 30 15 9 7 5 5 6 6 7 7 8 9 10 11 13 15 16 17 17 18 18 17 17 16 15 15 15 15 15 18 23 32 46 66 84 96 101 101 98 96 94 90 86 83 78 74 70 66 63 60 56 53 49 44 41 37 33 31 27 24 22 19 18 18 16 19 22 20 39 79
59 65 70 75 79 81 82 83 86 87 87 85 79 66 46 27 15 10 8 5 4 6 7 7 8 9 10 11 12 14 16 17 18 19 20 20 20 20 19 17 16 16 16 16 17 20 24 31 42 58 71 81 88 90 90 90 90 88 84 80 74 71 68 65 62 58 54 50 45 41 38 35 31 29 25 23 21 19 18 18 16 19 22 20 35 72
68 72 75 78 82 84 86 87 84 81 81 78 63 40 23 15 11 8 5 5 6 7 7 9 11 11 12 14 15 16 18 20 20 21 22 23 23 21 20 19 18 17 17 17 19 21 25 31 39 50 62 71 79 85 88 89 88 85 81 76 73 70 67 63 60 56 51 47 43 39 36 32 29 27 24 22 20 18 18 18 17 18 21 20 31 65
75 78 79 80 83 85 82 75 62 55 56 53 38 21 15 13 9 5 5 6 7 8 9 11 12 13 15 17 17 18 19 21 22 24 25 26 25 23 22 21 19 18 18 18 19 21 25 29 36 45 57 68 77 82 85 84 81 78 75 73 70 68 64 60 57 53 48 44 39 35 32 29 27 25 22 20 19 18 17 17 17 18 21 20 27 57
79 80 82 81 78 71 61 50 38 30 29 28 22 16 14 10 6 5 7 7 8 9 10 12 14 16 17 18 18 18 19 21 25 28 29 28 27 26 24 22 20 20 19 19 20 21 24 28 34 44 55 64 70 74 75 74 73 72 71 70 68 64 59 54 50 46 42 39 35 32 30 27 25 23 21 19 18 17 16 17 16 17 20 20 23 48
80 81 81 75 63 51 40 35 33 30 25 22 19 16 12 7 5 6 7 8 9 11 12 14 16 16 16 16 15 15 17 21 27 31 31 31 30 28 25 24 22 21 20 20 20 21 23 28 34 42 50 57 62 65 66 67 67 68 67 65 60 55 50 46 42 39 37 35 33 30 28 25 23 21 19 17 16 15 15 16 16 16 19 20 20 38
Wind_Speed
30 30 30 32 34 35 35 36 38 39 41 42 42 43 43 44 43 43 43 42 43 44 44 45 46 46 47 48 48 47 46 45 45 46 47 48 49 49 49 49 48 48 45 42 40 39 38 38 38 38 38 38 38 39 41 43 45 47 48 49 51 52 53 54 54 54 54 55 56 57 58 58 59 61 62 63 63 64 65 66 68 69 70 71 72 73
31 31 32 33 35 36 37 38 39 41 42 43 44 44 44 44 44 43 43 43 43 45 45 46 48 48 48 48 47 46 44 44 44 45 47 48 49 49 49 48 47 46 44 42 40 39 38 38 38 38 39 39 40 41 44 46 48 50 51 52 53 54 55 56 57 57 57 57 58 59 60 61 63 64 66 67 67 67 68 68 69 70 71 71 73 74
33 33 33 34 36 37 38 39 41 42 43 44 45 45 44 44 45 44 44 44 45 46 47 48 49 49 49 48 45 43 42 42 44 46 47 48 49 50 48 47 46 44 43 42 41 41 40 40 40 39 40 40 42 44 47 50 52 53 54 55 55 56 56 57 59 59 60 60 61 62 63 64 66 67 69 70 70 70 70 70 70 70 71 72 73 74
35 34 35 36 38 38 39 40 42 43 44 45 45 45 44 44 45 45 46 46 47 49 49 50 51 50 49 48 46 44 42 42 45 46 48 49 50 49 47 45 44 43 43 42 42 42 42 41 41 41 42 44 46 48 50 53 55 57 57 58 58 58 58 59 60 61 62 62 63 65 66 68 69 70 71 72 72 73 72 72 71 71 71 72 73 74
35 35 37 38 39 40 41 42 43 44 45 46 45 44 44 44 46 46 47 48 49 50 52 52 52 51 50 49 48 46 43 43 45 46 48 49 49 47 46 45 43 42 43 42 42 43 42 41 42 43 45 47 49 50 53 56 58 59 60 60 61 61 61 62 62 63 64 65 66 68 69 70 71 71 72 73 73 74 74 74 74 73 73 73 74 74
36 36 38 39 40 41 42 43 44 45 45 45 45 45 45 46 47 48 49 50 51 52 52 52 53 52 51 49 48 46 44 44 45 46 48 48 47 46 46 44 41 40 41 42 42 42 42 43 44 46 48 49 50 52 55 58 60 61 62 62 62 63 64 65 66 67 68 69 70 71 72 73 73 73 74 74 75 75 75 75 75 75 75 75 76 76
36 37 38 39 40 41 42 43 44 45 45 45 44 46 47 48 49 50 51 52 53 53 52 51 52 53 50 46 45 45 45 46 46 47 47 47 46 46 46 43 40 40 41 41 42 43 44 45 47 48 49 51 53 55 58 60 62 63 64 64 64 65 66 67 68 69 70 71 72 73 73 74 75 75 76 76 76 77 77 77 77 76 76 76 77 78
37 37 38 40 40 41 42 43 44 44 45 45 45 47 48 49 50 51 52 53 53 53 52 50 50 52 49 45 43 44 46 46 45 47 47 46 47 46 45 43 42 42 42 42 43 45 46 48 49 50 51 53 55 58 59 61 62 63 64 65 66 67 68 69 70 70 71 71 72 73 74 75 76 76 76 77 77 78 78 78 79 79 78 78 79 80
37 38 39 40 41 42 43 43 44 44 46 46 47 48 49 50 51 51 52 53 53 54 52 50 50 50 48 44 43 45 47 46 44 46 48 48 48 47 46 45 45 44 44 45 46 48 49 50 51 53 54 56 58 59 60 62 63 64 65 66 68 69 70 71 71 71 71 71 72 72 74 74 75 77 77 77 78 78 79 79 80 81 81 81 82 82
38 38 39 40 42 43 43 44 44 45 47 48 48 49 50 50 51 51 52 53 54 54 52 50 50 50 48 45 44 45 46 45 44 46 48 48 49 49 49 48 48 48 48 49 50 51 52 53 55 57 58 59 60 61 61 63 64 65 67 68 69 70 70 71 72 73 73 73 73 73 74 75 76 76 77 77 78 79 80 81 82 83 83 84 84 84
38 38 39 41 42 43 43 45 46 46 48 48 49 49 50 50 51 51 52 52 53 53 52 51 50 50 48 46 44 44 43 42 43 46 48 49 49 50 51 51 51 52 52 52 53 54 55 57 58 60 61 62 62 63 63 65 66 67 68 68 69 70 70 71 73 74 74 75 75 75 75 76 76 77 77 78 79 80 81 82 82 84 84 85 85 85
38 39 40 41 43 44 44 45 46 47 48 48 49 50 50 51 52 52 52 53 53 53 52 51 50 49 46 44 43 41 40 41 43 46 47 49 50 52 53 54 54 55 55 55 55 56 58 60 61 62 63 63 64 65 66 67 67 67 67 67 67 69 70 71 72 74 75 75 76 77 77 77 77 78 78 79 79 80 82 83 83 84 85 86 87 87
39 40 41 42 43 44 44 45 46 47 47 49 49 49 50 51 51 52 52 52 51 51 50 49 47 46 44 43 42 39 38 41 43 45 46 47 49 52 55 56 56 57 57 57 58 60 62 63 63 64 65 65 66 68 68 68 68 68 68 69 69 69 70 70 71 73 74 75 75 77 78 78 79 79 79 80 80 81 82 83 84 85 86 87 87 88
41 42 43 44 44 44 45 46 47 47 48 49 48 48 50 50 51 52 52 50 49 49 48 47 45 44 43 43 42 39 39 41 43 44 45 47 50 52 54 56 57 58 58 59 60 62 63 64 65 66 67 68 69 70 70 70 70 70 71 72 72 72 72 72 72 72 72 73 75 76 78 79 80 80 80 81 81 82 83 84 84 85 85 86 87 87
43 44 44 45 45 45 45 46 47 47 48 48 47 48 49 48 49 51 51 50 49 48 47 45 42 41 41 44 43 41 41 42 44 46 47 50 52 54 55 56 57 58 59 61 62 63 64 65 65 67 68 69 70 71 71 71 72 72 73 74 74 74 73 73 73 73 73 73 74 75 77 79 80 81 81 82 82 83 84 84 84 84 84 85 86 87
44 45 45 46 46 45 45 45 46 46 47 47 47 47 47 47 47 48 48 47 47 47 45 43 41 40 40 44 46 45 45 45 46 49 50 52 54 54 55 55 56 58 60 62 62 63 64 65 65 66 67 68 69 70 71 72 72 73 73 73 73 74 74 74 74 75 75 75 75 75 76 77 78 79 80 80 81 81 82 82 83 83 83 84 85 85
44 44 45 45 44 43 44 44 45 45 45 46 46 46 45 45 45 46 46 45 45 46 45 42 43 43 43 46 49 49 49 49 50 51 52 54 54 54 55 56 58 60 61 62 63 64 64 63 64 65 66 67 69 70 70 71 72 73 73 73 73 73 74 75 75 76 76 77 77 76 76 77 78 79 80 80 80 79 79 79 81 82 82 82 83 83
44 43 42 42 41 41 42 43 43 43 44 44 44 43 43 43 43 44 45 44 44 46 46 44 45 45 45 48 51 51 53 54 55 55 55 55 54 55 56 58 60 61 62 63 63 62 61 62 63 65 66 68 69 70 70 71 72 73 73 74 74 74 75 76 76 77 78 78 79 78 78 79 79 80 80 80 79 79 78 78 79 81 82 81 82 81
44 44 42 42 41 41 42 42 41 41 40 40 40 39 39 40 41 42 44 45 46 47 48 47 47 46 46 49 52 54 56 58 60 58 56 55 54 55 56 57 59 60 60 60 59 59 60 63 64 65 67 68 69 70 71 72 73 73 74 74 75 76 76 77 77 77 78 78 79 79 79 79 79 80 80 79 79 79 80 79 79 80 81 81 81 80
43 45 44 42 41 40 39 38 38 38 37 36 36 36 37 38 40 42 43 45 47 49 51 52 52 51 50 50 52 55 57 60 60 58 56 55 55 56 56 57 57 57 58 59 59 61 62 64 65 67 69 70 71 72 72 73 74 74 75 75 76 76 77 77 78 78 78 78 78 78 79 79 79 79 79 80 80 80 79 79 78 78 79 79 78 78
43 44 43 40 38 37 35 35 35 35 35 35 36 36 37 38 40 42 43 44 46 49 51 53 54 53 52 53 54 56 58 59 59 58 58 58 57 57 57 58 57 58 60 62 62 63 64 65 67 70 71 72 73 73 74 74 75 75 76 76 76 77 77 78 78 79 79 78 77 78 78 78 78 78 78 79 79 78 78 77 77 76 76 76 76 77
40 40 39 36 34 34 34 35 36 36 36 36 37 38 39 41 43 45 47 48 49 51 51 53 55 54 52 54 57 58 59 59 59 59 58 58 57 58 58 58 58 60 62 63 63 65 67 68 71 73 73 74 74 74 75 75 76 76 77 77 77 77 78 78 78 78 78 77 77 77 77 77 76 76 76 76 76 75 75 75 76 76 75 75 75 76
37 37 36 34 34 33 34 35 37 37 37 38 39 41 42 44 45 47 50 52 53 54 53 54 57 56 54 57 59 60 61 61 60 59 57 56 56 57 57 57 59 61 63 64 66 68 70 72 74 75 75 75 74 75 75 75 76 77 77 78 78 78 78 79 79 78 78 77 76 76 75 75 75 74 74 74 73 73 73 75 76 75 74 73 73 74
37 38 37 36 35 35 35 37 38 39 40 41 42 43 44 44 46 47 50 52 54 54 54 55 56 55 55 58 59 59 60 60 58 56 56 57 58 58 59 59 61 64 66 67 69 71 72 74 75 75 74 74 74 75 76 76 77 77 78 78 78 78 78 78 79 78 77 76 75 74 74 73 73 73 72 72 72 72 73 74 74 74 73 73 73 73
37 38 40 40 41 39 39 40 42 42 42 43 45 47 47 46 47 48 49 51 53 54 55 56 55 54 55 57 57 56 56 54 53 54 56 58 59 60 61 62 65 67 69 70 72 73 74 74 74 74 75 75 75 75 76 77 77 77 78 79 79 79 78 78 77 77 75 75 74 73 72 71 71 71 71 71 71 71 72 72 72 72 72 72 72 72
38 38 40 43 45 45 43 43 45 47 47 46 47 49 50 49 48 49 49 51 54 55 56 55 56 56 55 54 55 55 53 52 53 55 56 58 59 61 63 66 68 70 71 72 73 74 74 75 75 76 76 77 77 77 78 78 78 78 78 79 79 78 77 76 75 75 74 73 72 71 71 70 71 70 70 70 70 70 70 70 70 70 70 70 71 71
41 41 42 44 45 46 45 45 46 49 50 49 49 50 50 50 49 49 51 53 54 56 55 54 55 56 53 53 55 54 54 55 56 57 58 60 62 64 67 69 71 71 72 73 74 75 76 77 77 77 78 78 78 78 79 79 79 79 78 77 77 76 76 75 74 73 72 71 70 70 70 70 69 69 69 69 69 69 69 68 68 68 69 69 69 69
44 43 43 44 44 44 45 45 46 48 50 50 50 51 51 51 51 51 52 53 54 55 54 53 52 53 52 53 55 55 55 57 58 60 62 64 66 68 70 71 72 73 74 75 76 77 78 78 79 79 80 80 80 79 79 79 78 78 77 76 75 74 74 73 72 71 70 69 69 69 68 68 68 68 68 68 68 68 68 67 66 66 67 68 68 68
45 44 44 44 43 43 45 46 47 48 50 51 51 51 52 52 52 52 52 52 53 53 53 52 51 52 53 53 54 55 57 59 60 62 64 66 69 70 71 72 73 75 76 77 78 79 80 81 82 82 82 82 81 80 79 78 77 76 75 74 73 72 71 70 69 69 68 67 67 67 67 67 67 67 67 67 67 68 68 66 65 64 66 67 67 67
45 45 45 46 45 44 45 47 48 49 50 51 51 50 50 51 51 51 50 51 51 51 51 50 50 50 52 53 54 56 58 59 61 64 65 68 70 70 72 74 76 78 79 81 82 83 84 85 85 85 84 83 82 81 80 78 77 75 73 72 70 70 69 68 68 67 66 66 66 66 66 66 66 66 67 67 67 67 68 66 64 63 64 65 65 65
46 46 47 48 47 46 47 48 48 49 50 51 51 50 49 50 50 49 49 49 49 49 48 48 48 48 50 52 55 57 59 61 63 65 67 70 72 74 76 79 81 82 83 84 85 85 86 86 85 85 84 83 81 80 79 77 74 72 71 69 68 67 67 67 66 65 65 65 65 65 65 65 66 66 66 67 67 67 68 67 65 63 62 62 63 63
46 47 47 49 49 47 48 49 48 49 50 51 50 49 49 49 48 48 48 49 50 49 48 48 49 51 52 55 57 59 61 64 66 68 71 74 77 79 80 81 81 82 83 84 84 84 84 84 83 83 82 80 78 76 75 73 71 69 67 66 65 65 65 65 65 64 64 65 65 66 66 65 65 65 66 67 67 67 67 66 65 63 61 60 60 60
46 47 48 49 49 48 48 49 49 49 50 49 47 47 48 49 48 48 48 48 48 48 49 50 53 55 57 59 61 62 64 67 71 74 76 78 78 78 79 80 80 81 82 83 83 82 82 81 81 80 79 77 75 73 71 70 68 66 65 64 63 63 63 63 64 64 64 64 65 66 66 66 66 65 65 66 67 67 67 66 63 61 60 58 58 57
47 48 49 50 50 50 49 50 49 49 49 47 46 47 48 48 47 47 48 49 49 49 51 53 55 57 59 61 63 65 67 71 74 76 76 77 77 78 79 80 80 80 81 81 81 81 80 80 79 77 76 74 71 69 67 66 64 63 63 63 63 63 63 64 64 65 65 65 65 66 66 66 66 66 66 66 65 65 65 65 62 60 58 56 55 55
48 49 49 50 51 50 50 51 50 51 50 47 44 45 46 46 47 48 48 49 50 50 51 54 56 58 60 62 65 69 70 71 71 73 74 75 77 78 78 78 78 79 80 80 80 80 80 79 78 76 74 71 69 66 64 63 62 62 62 63 63 64 64 65 66 66 66 66 66 66 66 66 66 66 67 66 66 65 65 64 61 58 56 54 53 52
48 49 49 50 51 51 51 51 51 52 51 47 44 45 46 46 47 49 49 50 51 52 55 57 59 61 63 66 68 69 68 66 67 69 71 72 73 74 75 76 77 78 79 80 81 81 80 79 78 76 73 71 68 65 63 62 62 62 63 64 65 65 66 66 67 67 67 67 67 67 67 67 67 67 67 67 66 65 64 63 60 57 54 52 50 50
48 49 50 50 51 51 51 51 50 51 50 47 45 47 48 47 48 52 54 54 54 56 59 60 62 65 67 67 66 65 64 63 62 64 66 67 69 71 73 75 76 77 78 79 80 81 80 79 78 76 75 72 69 66 64 63 63 63 64 65 65 66 66 67 67 67 67 68 68 68 68 68 69 68 68 67 66 65 64 62 59 56 53 50 48 48
48 49 50 50 51 51 51 51 51 51 50 47 46 47 48 48 50 53 55 56 56 58 60 62 65 66 65 63 62 62 62 60 59 61 64 67 70 72 74 75 76 78 79 79 80 80 80 79 77 76 74 72 69 67 65 64 64 64 65 65 66 66 66 67 67 67 68 68 68 68 68 69 69 69 68 67 66 64 62 60 57 54 51 48 46 46
49 50 50 51 51 51 51 52 52 52 50 48 47 48 49 49 50 53 56 56 57 60 62 63 63 61 60 60 60 60 61 62 62 63 66 69 71 74 75 76 76 77 78 79 79 78 78 78 76 75 72 70 68 66 65 65 65 66 67 67 67 67 67 67 67 68 68 68 68 68 69 69 70 69 68 66 65 63 61 58 56 52 48 45 44 44
49 50 51 51 51 51 52 51 51 51 49 47 47 49 50 50 52 55 57 56 57 61 63 61 58 57 57 58 58 59 62 65 67 67 68 70 72 74 75 76 77 77 78 78 77 77 76 75 74 73 72 70 68 67 66 66 67 68 68 69 69 69 69 68 68 68 69 69 69 69 69 70 70 69 67 65 62 60 58 56 53 50 45 42 42 41
50 51 51 51 51 51 51 50 50 50 48 47 49 51 51 51 54 56 58 60 61 61 59 57 56 56 57 57 58 60 62 65 67 68 69 71 72 72 74 75 77 78 79 78 78 76 75 73 73 73 72 71 70 68 68 68 68 69 70 70 70 70 70 70 69 69 69 69 69 70 70 69 69 67 65 63 60 58 55 53 51 47 43 40 39 38
51 52 52 52 51 50 50 50 50 50 49 49 51 52 52 54 56 57 60 62 61 57 54 55 56 55 55 56 58 60 61 63 65 67 69 71 72 73 74 75 76 77 78 79 78 77 75 73 72 71 72 71 71 70 70 70 70 70 71 71 71 71 70 70 70 70 70 70 70 70 69 68 67 65 63 61 58 55 52 49 47 44 40 37 36 35
52 53 53 53 52 51 50 51 51 51 51 51 51 53 54 56 57 60 60 58 55 53 53 54 53 53 54 55 57 59 61 63 65 67 69 71 72 73 74 75 76 77 78 79 79 78 77 75 73 72 71 72 72 72 71 71 71 71 71 71 71 71 70 70 71 71 71 70 69 68 67 66 65 63 61 59 56 52 49 46 44 42 38 35 34 32
53 53 53 53 52 51 51 51 51 51 52 52 53 55 56 57 60 60 57 52 51 52 52 51 52 54 55 56 57 59 61 63 65 67 69 71 72 73 75 76 77 78 79 79 79 79 78 76 74 73 72 72 72 72 72 72 71 71 71 71 71 71 70 70 70 70 69 68 67 66 65 64 63 61 59 57 54 50 46 44 42 39 36 34 32 30
53 53 52 51 50 50 50 49 50 50 51 53 55 56 57 60 60 56 52 50 51 51 50 51 52 55 56 58 59 60 62 64 66 68 70 72 73 75 76 77 78 79 80 80 79 79 78 77 75 74 73 73 73 73 72 72 72 72 72 72 72 72 71 70 69 68 67 65 64 63 63 62 61 59 57 55 52 48 44 41 39 37 34 32 31 29
53 53 51 50 49 48 49 49 49 49 51 53 55 57 60 60 55 51 50 51 50 50 50 52 54 55 58 60 61 63 64 66 68 69 71 73 75 76 77 78 80 81 81 81 80 79 78 77 76 75 73 73 73 73 73 73 74 74 73 73 72 71 70 68 67 66 64 63 63 62 61 60 59 57 55 52 49 46 42 39 37 35 32 31 30 28
52 51 49 48 48 47 48 49 49 50 52 54 57 59 59 54 49 48 50 50 49 50 52 54 56 57 59 61 63 64 66 67 69 71 72 74 76 77 78 79 80 81 82 82 81 80 79 78 77 76 74 73 73 74 74 74 75 75 74 73 71 70 68 67 66 65 64 63 62 61 60 59 57 55 52 49 46 43 40 37 35 32 31 29 29 27
50 49 48 47 47 47 48 49 50 52 54 56 59 59 53 47 46 49 49 48 48 51 53 55 56 58 59 61 64 66 67 69 71 72 74 75 77 78 79 80 81 82 82 82 82 81 80 80 79 78 76 75 74 74 74 74 74 74 73 71 70 69 67 66 65 64 64 63 62 61 59 58 56 53 49 46 44 41 38 35 33 31 29 28 27 27
48 48 47 47 47 47 49 51 53 54 56 59 59 54 48 46 47 48 47 47 49 51 53 55 57 59 60 62 64 66 68 70 72 74 75 77 78 79 80 82 82 83 83 83 82 82 81 81 80 79 78 76 75 74 74 73 73 72 71 70 69 68 67 65 65 64 64 62 61 59 57 56 54 51 48 44 42 40 37 34 30 28 27 26 26 26
48 48 48 48 48 50 52 55 57 58 59 59 54 48 46 47 48 47 47 49 51 52 54 56 57 60 62 64 65 67 69 71 72 75 76 78 79 80 81 82 83 84 84 83 83 82 82 81 81 80 78 76 75 74 73 72 71 71 70 70 69 68 67 66 64 63 63 61 60 58 56 55 53 50 48 44 40 38 36 33 30 27 26 25 25 25
48 48 48 50 51 53 56 59 60 62 61 55 48 45 46 48 48 47 48 50 52 53 55 56 58 60 62 64 66 68 70 71 73 75 77 79 80 81 82 83 84 84 84 84 83 82 82 81 80 79 78 76 75 73 72 72 71 70 69 69 68 68 67 66 64 63 63 62 61 60 58 56 53 51 47 44 40 36 33 31 29 26 24 24 24 25
Wind_Direction
292 295 297 297 298 299 301 303 305 306 307 308 309 309 308 308 307 306 306 306 305 306 307 308 309 311 312 311 312 313 313 311 310 309 307 306 305 305 305 304 305 304 302 300 298 295 295 295 292 291 289 288 287 288 292 296 298 298 297 297 296 295 294 293 293 292 292 291 291 291 291 291 292 291 291 290 290 289 290 290 290 290 290 290 289 289
294 296 297 297 298 300 302 304 305 307 308 309 309 309 309 308 307 306 306 306 306 306 308 308 309 311 311 312 312 313 312 310 309 307 305 305 305 304 304 304 304 303 301 299 297 296 297 295 292 290 289 288 287 289 293 297 298 298 298 297 296 295 294 293 293 293 293 292 292 292 292 292 292 291 291 290 290 290 290 291 291 291 291 290 290 290
295 296 296 296 297 299 301 304 305 307 308 309 309 309 309 308 307 307 307 307 307 307 308 308 308 310 312 312 312 311 310 309 307 305 304 305 305 304 304 304 303 301 300 299 297 297 297 295 292 290 288 286 286 288 292 296 298 298 298 297 296 295 294 294 294 294 294 294 293 293 292 291 291 291 290 290 290 290 291 291 292 292 292 291 291 290
295 297 297 297 298 300 302 305 306 307 308 309 309 309 309 308 307 308 308 307 308 308 308 308 309 310 311 311 311 311 310 309 307 306 305 305 304 304 304 303 303 302 301 300 298 297 297 296 293 291 288 286 286 288 291 294 296 297 297 296 295 295 294 294 294 294 294 294 293 292 292 292 292 292 292 293 293 293 293 293 293 293 292 292 291 290
296 298 298 299 300 302 304 306 307 308 308 308 309 309 308 307 307 308 307 307 307 307 308 308 308 309 311 311 312 312 312 309 307 306 305 304 304 304 303 303 305 304 302 300 298 297 296 295 294 291 289 287 287 288 291 293 295 296 296 296 296 295 295 295 295 295 294 293 293 293 294 294 295 295 295 295 295 295 295 295 294 293 293 292 291 290
297 298 299 299 301 303 305 307 308 308 308 308 309 308 307 307 307 307 307 306 306 307 308 309 309 310 311 312 312 311 310 308 306 305 305 304 304 303 303 306 307 305 301 298 297 296 295 295 294 292 290 289 289 290 291 293 295 296 296 296 296 297 297 297 296 295 295 295 296 296 297 297 297 297 296 296 296 296 295 295 294 293 293 292 291 291
298 299 299 301 302 304 306 307 307 307 307 308 308 307 307 307 307 306 306 306 306 307 309 311 310 310 311 312 311 310 307 306 307 306 305 304 303 303 306 308 307 303 299 297 296 295 295 294 294 293 292 292 292 292 293 294 295 296 296 297 297 297 297 296 296 297 298 298 299 299 299 298 298 298 297 297 296 296 295 294 294 293 293 292 292 291
300 301 301 302 304 305 306 307 307 307 307 307 307 306 306 306 306 306 306 306 306 307 309 310 309 309 311 310 310 309 307 307 308 307 305 305 304 306 308 308 305 302 300 298 297 296 295 295 294 294 293 292 292 293 294 295 295 296 296 297 296 296 296 296 297 299 299 300 300 300 299 299 298 298 297 296 296 296 295 295 295 294 293 292 291 290
302 303 303 305 305 306 306 306 306 306 306 306 306 306 305 305 305 306 306 306 306 307 308 308 306 307 310 311 312 311 310 312 312 308 306 306 307 308 307 306 304 303 301 299 298 297 296 295 295 294 293 293 293 294 295 295 295 296 296 296 296 296 297 298 299 300 300 299 299 299 299 298 298 297 297 296 296 296 296 295 295 294 293 292 291 289
304 304 306 306 306 306 306 306 306 306 306 306 305 305 305 305 306 306 306 306 305 306 306 306 306 308 312 315 316 314 313 314 312 307 306 307 307 307 305 304 304 303 302 301 299 298 297 296 295 295 295 295 295 296 296 296 296 296 296 297 297 299 300 300 300 300 300 300 299 298 298 297 297 297 297 297 297 296 296 295 294 294 293 292 291 290
305 306 307 307 306 306 306 306 306 305 305 305 305 304 305 305 305 305 305 304 304 304 305 307 309 312 315 317 316 315 314 312 309 306 307 307 307 307 305 305 304 304 303 302 301 300 298 297 297 297 297 297 297 298 297 297 297 298 299 299 300 301 301 301 301 300 300 300 299 299 298 298 297 297 297 297 297 297 296 295 295 294 293 292 291 290
305 306 306 306 306 306 306 306 305 305 305 305 305 305 305 305 304 304 304 303 304 306 308 310 312 314 316 315 312 313 312 309 307 306 307 308 309 307 306 306 306 304 303 303 303 301 300 300 300 299 299 299 300 299 298 298 299 299 299 299 299 300 300 300 301 301 301 301 300 300 299 299 298 298 298 298 298 297 296 296 295 294 293 293 292 291
307 307 307 306 306 305 305 305 305 305 305 305 306 306 305 304 304 304 304 305 306 308 309 310 312 314 315 311 310 312 310 307 306 306 307 308 306 305 305 305 305 304 304 305 303 302 302 301 301 301 301 301 300 299 299 299 299 299 299 299 299 299 299 299 300 300 300 300 301 300 300 300 300 299 299 299 298 297 297 296 296 295 295 294 294 293
308 307 307 307 306 307 307 306 306 306 306 306 306 306 305 305 305 304 305 305 306 307 308 310 312 313 311 308 309 310 308 306 305 305 306 305 303 302 303 304 304 304 304 303 302 302 302 302 301 301 301 300 299 299 299 300 300 300 300 300 300 300 300 300 300 299 299 300 300 301 301 301 300 300 300 299 299 298 298 298 298 297 297 297 297 296
308 307 307 307 307 308 308 308 307 307 307 307 307 306 305 305 304 305 306 306 307 308 309 311 312 312 310 308 308 308 306 306 305 305 305 303 303 304 305 305 305 304 303 302 302 302 301 301 300 300 299 299 299 299 300 300 301 302 302 302 302 302 302 301 300 300 300 301 301 301 302 302 302 301 301 301 301 301 300 300 300 300 299 299 298 298
307 307 307 307 309 310 310 309 308 308 308 307 307 305 305 304 304 305 306 307 308 309 309 311 311 310 309 307 307 308 308 306 305 304 303 303 304 305 305 305 303 301 301 300 300 299 299 299 299 298 298 298 299 300 301 302 303 303 303 302 302 301 301 301 302 302 302 301 301 301 301 301 302 302 302 302 302 302 302 302 302 301 301 300 300 300
306 307 308 310 311 312 311 310 309 308 307 307 306 305 305 305 305 306 307 308 310 310 311 313 312 312 312 309 308 309 308 305 303 302 302 304 305 306 304 302 301 300 300 299 299 298 299 298 297 298 298 299 300 301 303 303 303 302 301 300 300 301 302 302 303 303 302 302 302 302 302 302 301 301 301 302 302 302 302 302 302 301 301 302 302 302
307 308 310 312 312 312 310 309 309 308 307 306 306 307 307 308 308 309 309 311 311 310 311 312 312 313 313 310 308 308 306 304 304 304 306 308 308 306 304 302 301 300 300 299 299 299 299 298 298 299 300 301 302 303 303 302 301 300 300 301 302 302 303 303 303 303 304 304 304 304 303 303 302 302 303 303 303 303 302 302 302 303 303 304 304 304
308 309 311 312 312 311 309 309 308 307 307 307 308 309 309 310 310 310 311 312 312 310 310 311 311 310 310 309 309 307 305 306 307 308 310 309 307 304 302 300 299 299 299 298 298 298 298 299 301 302 302 302 303 303 302 301 300 301 301 303 304 304 304 304 304 304 304 304 304 304 304 304 304 304 304 304 304 303 303 304 305 306 306 307 307 306
311 311 312 313 312 311 311 310 309 308 309 310 311 311 311 311 311 310 311 311 311 310 310 310 311 311 311 311 309 306 305 307 308 308 308 306 304 302 300 299 300 300 299 298 299 300 301 302 303 302 302 302 302 302 301 301 302 303 303 304 305 305 305 305 304 304 304 304 304 304 305 305 305 305 305 305 305 305 306 307 309 309 309 309 309 308
313 313 313 314 314 313 313 313 311 311 312 313 313 312 312 310 309 308 308 308 307 307 308 309 309 310 311 310 306 304 305 306 306 307 307 306 304 303 302 303 303 302 301 302 303 303 304 304 303 303 303 303 303 303 303 304 304 305 305 305 305 305 305 304 304 304 304 305 305 305 305 305 306 306 306 307 307 308 309 310 310 310 309 310 309 308
315 315 316 318 317 317 317 315 314 314 315 314 312 311 311 310 310 309 308 308 307 306 307 307 306 308 309 306 304 305 307 307 307 308 308 307 305 304 305 306 305 304 304 305 305 305 305 305 303 303 304 304 304 305 305 305 305 305 305 305 305 305 304 304 304 305 305 306 306 306 306 306 306 307 307 307 307 309 310 310 310 310 310 310 310 309
317 316 317 318 317 317 317 315 313 314 313 311 311 311 312 312 311 310 309 309 308 308 309 308 307 310 310 306 306 309 309 308 310 311 309 306 305 305 306 307 306 304 304 305 305 305 305 305 304 305 305 305 306 306 306 306 306 306 306 305 305 305 305 305 306 306 306 306 306 306 306 306 306 307 307 307 308 309 310 310 310 310 310 311 311 311
318 317 317 317 316 316 316 313 312 312 311 311 310 310 310 309 309 308 308 307 307 307 307 306 307 310 308 307 308 308 307 309 310 309 306 305 306 307 307 307 305 305 305 306 306 306 306 305 305 305 305 306 306 306 306 306 306 306 306 306 305 306 306 306 306 306 306 306 306 306 306 306 306 307 307 307 308 309 310 311 311 311 311 312 312 312
318 319 319 318 317 317 316 314 312 311 310 310 309 308 309 309 308 308 307 306 306 306 306 306 307 307 306 306 306 304 305 308 307 305 306 306 307 307 307 306 305 306 307 307 307 306 306 305 306 306 306 307 307 307 307 306 306 306 306 306 306 306 306 306 306 306 306 306 306 306 306 307 307 307 307 307 308 310 311 311 311 312 312 313 314 314
318 319 319 318 317 317 317 315 313 311 311 310 309 309 310 310 310 309 308 307 306 306 307 307 307 307 306 306 304 305 307 306 305 306 307 306 306 306 306 306 307 308 308 307 307 307 306 307 308 309 309 309 308 308 307 307 307 306 306 306 306 306 306 306 306 306 306 306 306 307 307 307 307 307 308 309 310 311 312 312 312 312 312 313 314 314
317 317 317 315 315 315 315 314 312 311 311 311 310 310 310 310 311 309 308 307 306 306 307 307 306 307 307 306 305 308 308 307 307 308 308 307 308 308 308 308 309 310 309 309 309 308 309 310 310 310 309 309 308 308 308 307 307 307 306 306 306 306 306 306 306 306 306 307 307 307 308 308 308 308 308 310 310 311 312 312 312 311 312 313 314 314
315 315 315 313 314 314 313 311 311 310 310 310 310 310 310 310 310 309 307 307 306 306 307 307 307 308 308 307 308 309 308 308 310 310 310 311 310 310 310 311 311 310 309 310 310 311 311 311 310 310 309 309 308 308 308 308 307 307 307 307 306 306 306 306 306 307 307 307 307 307 308 308 308 309 309 310 311 311 312 312 312 311 311 312 312 313
314 315 314 313 314 314 312 311 310 309 309 309 309 310 310 310 309 308 307 307 307 307 308 308 309 310 310 310 310 311 311 312 312 312 312 311 310 311 311 311 311 311 312 312 312 312 311 311 310 310 310 310 309 309 309 309 308 308 308 307 307 306 306 306 307 307 307 307 307 307 308 308 309 309 310 310 311 312 313 312 312 311 310 311 311 313
315 315 315 314 314 313 311 310 310 309 309 309 309 309 309 308 308 308 308 308 307 308 309 310 311 312 312 312 312 313 313 314 313 313 312 311 310 311 312 313 314 314 314 314 313 312 311 311 311 311 311 311 311 310 310 310 309 309 308 307 307 306 307 307 307 307 307 307 307 307 308 308 309 310 310 311 312 313 313 313 312 310 309 310 310 312
316 315 315 314 314 314 312 311 311 310 310 309 310 311 311 309 309 309 308 307 308 309 311 313 313 313 312 312 313 314 314 313 313 313 312 313 314 316 317 317 317 316 315 314 313 313 313 313 313 313 312 312 312 311 311 311 310 310 309 308 307 307 307 307 307 307 307 307 307 307 308 309 310 311 312 312 313 313 313 313 312 310 308 309 310 311
317 316 316 315 315 315 314 313 313 313 312 312 313 313 311 310 311 311 311 311 312 313 314 315 315 314 313 314 314 315 315 315 316 316 317 318 319 319 319 317 317 316 316 316 315 315 315 315 315 314 313 313 313 312 312 312 311 310 309 308 307 307 307 306 307 307 308 308 308 308 309 310 311 312 313 313 313 313 313 312 311 309 308 308 309 311
318 317 316 316 316 316 316 315 315 314 313 314 315 314 313 313 314 314 314 313 314 315 317 318 317 316 316 316 316 316 317 319 320 321 321 321 321 320 319 319 319 318 318 317 317 317 316 316 316 316 315 315 315 314 314 313 311 310 309 308 307 307 307 307 308 308 308 308 308 309 310 311 312 312 313 313 313 313 312 311 311 309 307 307 309 310
318 317 317 316 316 316 316 315 315 315 314 316 317 316 315 315 314 314 314 314 316 319 320 319 317 317 317 317 318 319 321 323 324 323 322 322 322 321 320 320 320 319 318 318 317 317 317 317 317 317 317 317 316 315 314 313 312 311 309 308 308 309 309 310 310 310 309 309 309 310 311 311 312 312 312 312 312 312 311 311 310 308 306 306 308 310
318 317 317 316 316 316 316 316 315 315 315 318 320 317 314 314 314 315 316 317 318 319 318 316 316 317 318 320 322 323 324 325 325 324 323 323 323 322 322 322 322 321 320 319 319 319 319 319 319 319 318 318 317 316 315 314 312 311 310 310 311 311 312 312 311 311 311 310 310 310 311 311 312 312 312 313 312 312 311 311 310 308 306 305 308 310
318 317 317 317 316 316 316 316 316 316 316 318 318 316 315 316 316 315 315 315 316 317 317 317 319 320 322 324 325 325 325 325 325 324 324 325 325 325 326 326 327 326 325 324 323 322 321 321 321 320 319 319 318 317 315 314 313 312 312 312 313 313 313 312 311 311 310 310 310 310 311 311 312 312 312 312 312 311 311 310 309 308 305 305 307 309
318 318 318 317 317 317 318 318 317 317 317 319 319 317 317 318 317 315 315 317 319 320 320 320 322 323 324 324 324 324 324 325 326 326 326 328 329 330 331 331 331 331 330 329 327 325 324 323 322 321 320 319 318 316 315 314 313 313 312 312 312 312 312 311 311 311 311 311 311 311 311 311 311 312 312 312 311 311 310 309 308 307 305 304 306 308
320 319 319 319 319 318 318 317 316 316 317 320 320 318 317 318 318 317 318 321 323 322 321 323 324 324 323 323 324 324 325 327 329 330 331 332 333 333 334 334 334 334 333 332 331 328 326 324 322 321 319 318 317 315 314 313 313 312 311 311 311 311 310 310 310 310 310 310 310 310 310 310 311 311 311 311 310 310 309 309 307 306 304 303 305 307
321 321 320 320 319 318 317 317 317 317 318 320 319 317 318 319 319 319 320 322 323 322 323 323 323 323 323 324 326 328 329 330 334 335 335 335 335 335 335 335 335 335 334 333 332 330 327 324 321 320 318 316 315 314 313 313 312 311 311 310 310 310 310 310 310 310 310 310 310 310 310 310 310 310 310 310 310 310 309 308 307 305 303 302 304 306
322 321 320 320 319 318 318 318 317 317 319 320 318 316 318 320 320 320 320 321 321 322 322 322 323 324 326 327 330 332 333 334 336 337 336 336 336 335 335 334 334 334 334 333 332 330 327 324 321 319 317 316 314 313 313 312 312 311 311 310 311 311 311 311 311 311 310 310 310 310 310 310 310 310 310 310 310 310 309 308 306 304 301 301 303 304
322 321 321 320 320 319 318 318 317 318 319 319 317 317 319 319 319 320 320 321 321 322 322 323 325 327 329 330 332 334 335 335 336 336 336 335 335 335 335 334 334 334 334 333 332 330 328 325 322 320 318 316 315 314 312 312 311 311 311 311 312 312 312 312 312 311 311 311 311 310 310 310 311 311 311 311 311 311 309 307 305 302 300 299 302 302
323 322 321 320 320 319 318 318 317 317 318 319 318 318 319 319 318 319 320 321 322 323 324 325 327 328 330 332 333 334 334 335 335 335 335 335 335 335 335 335 334 334 334 333 332 331 329 326 323 320 318 317 316 314 313 312 312 312 312 312 312 313 313 313 312 312 312 311 311 311 311 311 311 311 311 311 311 310 309 306 304 301 299 298 300 299
323 322 321 320 320 319 318 317 317 318 319 318 317 318 318 318 318 319 320 321 322 324 325 326 327 329 330 331 333 333 333 334 334 334 335 335 335 335 335 335 335 334 334 333 332 331 329 327 324 321 319 317 316 315 314 314 313 313 313 313 313 313 313 313 313 312 312 312 312 312 312 312 312 312 312 312 311 310 308 306 303 300 297 296 297 297
323 322 321 321 320 319 319 318 319 320 320 319 318 318 318 318 319 319 320 322 323 324 325 326 328 329 330 331 332 333 333 333 334 335 335 335 335 335 335 335 335 334 334 333 332 331 329 327 325 322 320 318 317 317 316 315 315 315 315 314 314 314 314 314 313 313 312 312 312 312 312 312 312 312 312 311 311 309 307 305 302 299 295 294 295 294
323 322 322 321 320 319 318 318 319 319 320 319 319 319 318 318 319 320 321 323 324 325 325 327 328 329 330 331 332 333 333 334 335 335 335 336 336 336 336 335 335 334 333 333 332 331 329 327 325 323 321 319 318 318 317 317 316 316 316 315 315 315 315 314 314 314 313 313 313 313 313 313 312 312 312 311 310 308 306 304 301 298 293 291 291 292
323 322 321 320 319 319 318 318 318 319 319 318 318 317 318 318 319 321 322 323 324 324 325 327 328 329 330 331 332 333 334 334 335 335 335 336 336 337 336 336 335 334 333 333 331 330 329 327 326 324 322 320 319 318 318 318 317 317 317 317 316 316 316 316 316 316 315 315 314 314 313 313 313 312 312 311 310 308 305 302 300 296 292 288 288 290
323 322 321 320 319 318 318 317 318 317 317 316 316 317 318 319 320 321 322 323 323 324 326 328 329 330 331 332 332 333 334 334 335 335 336 336 337 337 337 336 335 334 333 332 331 330 329 328 326 324 322 321 320 319 319 318 318 318 318 318 318 318 318 318 317 317 316 316 315 314 314 313 313 313 312 311 310 308 304 302 299 294 289 285 285 287
323 322 321 320 319 318 317 317 317 317 317 317 317 317 317 319 319 320 321 322 323 325 327 328 329 330 331 331 332 333 333 334 335 335 336 337 338 337 337 336 335 334 333 332 331 330 329 328 326 325 323 322 321 320 320 320 319 319 319 319 319 319 319 319 318 318 317 317 316 315 315 314 314 313 313 312 310 307 304 300 298 293 287 283 281 283
324 322 321 320 319 318 316 316 316 317 317 317 317 317 318 319 320 320 321 321 323 325 326 328 329 329 330 331 332 333 334 334 335 336 337 338 338 338 337 336 336 335 334 333 331 330 329 328 327 326 325 324 323 322 321 321 321 321 320 320 320 320 320 319 319 318 318 318 317 317 316 316 315 315 315 313 311 308 304 300 296 291 286 281 279 280
324 322 321 320 319 318 317 317 318 318 319 319 318 317 318 319 320 320 321 322 323 325 326 328 329 329 330 332 333 333 334 335 336 337 338 338 338 338 337 336 336 335 334 333 331 330 329 328 327 327 326 325 324 323 323 322 322 322 322 321 321 320 320 320 320 320 319 319 319 319 318 318 318 317 317 314 311 308 304 300 296 290 284 280 277 277
323 322 321 320 320 320 320 320 320 320 320 320 318 317 318 320 320 320 320 322 324 326 327 328 329 330 331 332 333 334 335 336 337 337 338 338 338 337 337 336 336 335 334 332 331 331 330 329 328 327 327 326 325 325 324 324 324 323 323 322 322 321 321 321 321 321 320 320 320 320 319 319 319 318 318 315 312 308 303 299 295 290 283 279 276 274